Total_Precipitation_Accumulation
2.50 2.62 3.97 4.15 3.64 3.44 3.51 3.35 3.30 3.23 3.08 2.99 2.85 2.73 2.57 2.40 2.21 2.05 1.89 1.80 1.75 1.77 1.83 1.84 1.89 1.93 2.12 2.04 1.97 2.14 2.24 2.30 2.28 2.21 2.23 2.34 2.35 2.49 2.62 2.90 3.18 3.35 3.19
2.09 2.51 3.87 4.05 3.52 3.18 3.24 3.27 3.36 3.31 3.09 2.90 2.77 2.70 2.45 2.35 2.22 2.06 1.88 1.82 1.74 1.77 1.87 1.96 1.92 1.90 2.08 1.99 1.96 2.16 2.27 2.25 2.22 2.23 2.46 2.61 2.64 2.67 2.50 2.71 3.01 3.38 3.30
1.92 2.18 2.98 3.65 3.43 3.20 3.12 3.06 3.24 3.29 3.09 2.92 2.84 2.81 2.43 2.29 2.26 2.15 2.04 2.02 1.95 1.92 1.88 1.96 2.06 2.07 2.22 2.20 2.15 2.30 2.46 2.35 2.12 2.15 2.72 3.52 2.96 2.75 2.88 3.06 3.25 3.24 3.25
1.79 1.88 2.33 3.31 3.26 3.14 3.28 3.21 3.21 3.26 3.23 3.07 2.90 2.62 2.32 2.33 2.39 2.40 2.40 2.31 2.15 2.08 2.15 2.17 2.16 2.09 2.31 2.45 2.36 2.43 2.73 2.64 2.41 2.31 2.69 3.40 3.32 3.09 3.08 3.26 3.43 3.18 3.16
1.69 1.84 2.50 3.17 3.02 2.91 2.98 3.12 3.23 3.36 3.37 3.29 2.97 2.49 2.28 2.26 2.32 2.39 2.47 2.40 2.26 2.14 2.15 2.18 2.07 2.00 2.22 2.49 2.45 2.53 2.73 2.70 2.63 2.28 2.53 3.21 3.75 3.48 2.98 3.14 3.30 3.17 3.13
1.62 1.72 2.23 2.92 2.87 2.75 2.81 3.20 3.16 3.10 3.09 3.04 2.76 2.47 2.28 2.32 2.24 2.35 2.39 2.29 2.17 1.98 1.92 1.95 1.93 1.86 2.00 2.36 2.43 2.47 2.74 2.78 2.45 2.37 2.69 3.27 3.74 3.45 2.82 2.88 3.13 3.27 3.27
1.60 1.53 1.83 2.48 2.61 2.68 2.84 3.09 3.02 2.88 2.83 2.65 2.47 2.33 2.23 2.27 2.26 2.23 2.08 1.88 1.84 1.81 1.79 1.91 1.91 1.76 1.87 2.20 2.35 2.29 2.37 2.24 2.09 2.37 2.69 3.22 3.31 3.14 2.69 2.73 3.10 3.42 3.44
1.55 1.44 1.64 2.15 2.35 2.37 2.50 3.01 3.21 2.94 2.90 2.62 2.34 2.25 2.23 2.18 2.12 2.00 1.80 1.70 1.72 1.81 1.85 1.81 1.77 1.70 1.80 2.01 2.22 2.31 2.34 1.82 1.53 1.84 2.29 3.02 3.49 3.26 2.75 2.64 2.97 3.27 3.53
1.65 1.54 1.68 1.75 1.85 2.14 2.48 2.65 2.93 2.99 2.88 2.63 2.26 2.12 2.14 1.98 1.83 1.78 1.77 1.78 1.69 1.74 1.73 1.66 1.62 1.67 1.81 1.96 2.09 2.13 2.01 1.63 1.45 1.79 1.95 2.81 3.53 3.40 2.91 2.68 2.82 2.99 3.28
1.54 1.49 1.55 1.64 1.65 1.71 1.94 2.16 2.43 2.79 2.69 2.45 2.24 2.17 2.14 1.93 1.75 1.72 1.66 1.85 1.83 1.75 1.75 1.67 1.60 1.63 1.70 1.85 1.86 1.72 1.48 1.26 1.31 1.56 2.22 2.85 3.73 3.60 3.05 2.78 2.70 2.68 2.77
1.40 1.31 1.32 1.33 1.42 1.49 1.55 1.65 1.90 2.11 2.19 1.97 1.71 1.76 1.63 1.42 1.34 1.43 1.47 1.82 1.93 1.97 1.90 1.79 1.77 1.72 1.61 1.62 1.62 1.41 1.17 1.14 1.37 1.57 2.22 3.13 3.66 3.60 3.05 2.76 2.73 2.54 2.42
1.48 1.30 1.16 1.19 1.23 1.28 1.26 1.52 1.74 1.55 1.55 1.51 1.46 1.37 1.29 1.32 1.37 1.19 1.34 1.69 1.66 1.68 1.71 1.69 1.69 1.52 1.25 1.15 1.18 1.11 1.06 1.16 1.27 1.43 2.16 3.19 3.46 3.48 3.10 2.75 2.60 2.40 2.29
1.33 1.21 1.08 1.14 1.10 1.03 1.12 1.27 1.50 1.56 1.60 1.61 1.50 1.46 1.31 1.20 1.14 1.03 1.04 1.19 1.23 1.28 1.25 1.33 1.35 1.16 0.99 1.00 1.03 1.01 1.02 1.09 1.29 1.47 2.21 3.26 3.59 3.54 3.35 2.94 2.69 2.47 2.40
1.21 1.26 1.09 1.05 1.01 0.91 0.82 0.89 1.07 1.14 1.20 1.23 1.31 1.35 1.33 1.34 1.27 1.11 1.14 1.21 1.22 1.20 1.34 1.34 1.33 1.20 1.05 0.91 0.94 1.03 1.04 1.05 1.26 1.55 2.12 2.97 3.60 3.81 3.73 3.28 2.96 2.70 2.51
1.31 1.23 1.14 1.10 1.05 1.04 0.99 0.91 0.86 0.89 0.98 1.04 1.14 1.16 1.22 1.27 1.29 1.27 1.24 1.35 1.32 1.29 1.37 1.32 1.15 1.18 1.16 1.02 0.99 1.02 1.09 1.13 1.27 1.36 1.73 2.41 3.17 3.91 4.10 3.79 3.29 2.94 2.81
1.26 1.31 1.26 1.14 1.13 1.04 1.00 1.02 1.02 0.96 1.00 1.05 1.12 1.04 1.04 1.11 1.07 1.17 1.26 1.39 1.29 1.30 1.37 1.27 1.21 1.25 1.26 1.16 1.06 1.06 1.04 1.12 1.22 1.33 1.48 1.89 2.38 3.10 3.83 3.99 3.62 3.24 3.01
1.18 1.29 1.35 1.32 1.29 1.16 1.09 1.09 1.09 1.05 0.98 1.02 1.08 0.96 0.93 1.03 1.05 1.15 1.24 1.31 1.30 1.29 1.29 1.34 1.37 1.30 1.20 1.14 1.16 1.11 1.04 1.06 1.25 1.36 1.43 1.64 1.74 1.96 2.74 3.57 3.84 3.66 3.44
1.19 1.19 1.25 1.24 1.28 1.31 1.26 1.19 1.16 1.10 1.07 1.11 1.11 1.06 0.99 0.98 1.08 1.32 1.36 1.25 1.31 1.41 1.47 1.55 1.53 1.45 1.34 1.31 1.32 1.26 1.19 1.23 1.35 1.44 1.40 1.40 1.48 1.45 1.78 2.37 2.94 3.32 3.65
1.17 1.16 1.19 1.20 1.39 1.45 1.42 1.42 1.36 1.26 1.29 1.31 1.30 1.26 1.19 1.10 1.22 1.49 1.59 1.43 1.38 1.58 1.58 1.45 1.50 1.57 1.56 1.61 1.46 1.45 1.44 1.47 1.45 1.35 1.33 1.40 1.50 1.54 1.62 1.61 1.89 2.31 3.01
1.04 1.05 1.13 1.21 1.32 1.47 1.66 1.72 1.70 1.62 1.58 1.68 1.72 1.67 1.51 1.44 1.46 1.67 1.86 1.78 1.67 1.81 1.84 1.70 1.82 1.93 1.87 1.94 1.75 1.61 1.56 1.56 1.49 1.48 1.44 1.52 1.65 1.55 1.59 1.59 1.61 1.45 1.90
0.87 0.83 0.94 1.15 1.33 1.49 1.65 1.83 2.01 2.13 2.17 2.10 2.03 2.05 1.97 1.83 1.90 2.05 2.05 2.27 2.30 2.26 2.29 2.22 2.41 2.50 2.25 2.08 2.44 2.35 1.91 1.58 1.46 1.54 1.64 1.71 1.82 1.83 1.80 1.80 1.79 1.54 1.46
0.79 0.80 0.88 1.06 1.34 1.54 1.73 1.95 2.15 2.51 2.64 2.57 2.54 2.39 2.28 2.20 2.26 2.17 2.29 2.53 2.54 2.62 2.69 2.55 2.74 2.91 2.63 2.32 2.81 3.31 2.86 2.34 1.68 1.42 1.54 1.70 1.90 1.93 1.87 1.76 1.79 1.77 1.69
0.65 0.70 0.80 0.93 1.16 1.49 1.83 2.10 2.33 2.59 2.83 2.89 2.73 2.64 2.54 2.56 2.62 2.56 2.54 2.69 2.71 2.77 2.93 2.94 2.92 3.11 3.10 2.78 2.74 3.34 3.33 2.94 2.45 1.84 1.66 1.73 1.92 2.01 2.04 2.00 1.85 1.88 1.82
0.65 0.73 0.84 0.94 1.08 1.29 1.57 1.98 2.36 2.63 2.95 2.95 2.80 2.76 2.75 2.74 2.74 2.70 2.72 2.83 2.86 2.84 2.90 2.91 2.89 3.23 3.52 3.36 3.07 2.80 2.73 2.75 2.82 2.46 2.01 1.84 1.93 2.00 2.11 2.02 2.05 2.14 2.12
0.71 0.77 0.89 1.00 1.15 1.31 1.56 1.92 2.31 2.56 2.80 2.97 2.92 2.76 2.66 2.67 2.54 2.42 2.54 2.74 2.79 2.81 2.82 2.95 3.03 3.31 3.40 3.37 3.31 3.18 2.98 2.76 2.36 2.45 2.41 2.17 2.08 1.96 2.04 2.19 2.28 2.33 2.28
0.79 0.89 1.00 1.14 1.35 1.49 1.60 1.73 1.90 2.13 2.49 2.65 2.76 2.75 2.71 2.68 2.48 2.29 2.34 2.45 2.57 2.68 2.67 2.72 2.88 3.04 3.28 3.43 3.37 3.23 3.24 3.18 2.94 2.71 2.39 2.26 2.37 2.21 2.05 2.03 2.12 2.21 2.36